Location: Chandrammap?lem
(16.9200°N, 81.0051°E)
Time: 03:38:33
(UTC+00:00)

Cosmos 1842 Rocket - Pass Details

Date: 29 May 2024
Orbit: 601 x 631 km, 82.5° (Epoch: 17 June)

Event Time Altitude Azimuth Distance (km) Brightness Sun altitude
Exits shadow 14:54:53 36° 209° (SSW) 992 4.5 -24.0°
Maximum altitude 14:56:31 62° 275° (W) 701 3.9 -24.3°
Drops below altitude 10° 15:00:53 10° 356° (N) 1,987 6.6 -25.1°
Sets 15:03:08 0° 360° (N) 2,889 7.5 -25.6°
